NOAA 17 DEB, 49479

Orbit data source: Space-Track

NOAA 17 DEB, 49479 is space debris in SSO originally from a launch on Mon, 24 Jun 2002 UTC launched from the Air Force Western Test Range (AFWTR). Debris objects in space refer to the collection of defunct objects orbiting the Earth. Examples of debris include non-operational satellites, rocket bodies, and fragments generated from explosions, collisions, or faulty payload assembly.

Loading next visibility...
Identifier
49479, 2002-032DH
Orbit
SSO
Country
Flag of USUS
Related business
Manufacturer
Unknown
Mission
Spacecraft
Bus & Motor
Unknown
Mass
Unknown
Launch date (UTC)
2002-06-24 (24 years ago)
Launch vehicle
Unknown
Launch site
Air Force Western Test Range (AFWTR)
Object type
Payload
Rocket body
Debris
Shape & HBR
Unknown shape, 0.1 m
Radar Cross Section
Small (<0.1 m²)

Expand to show TLE details & history
Last TLE update: 1 week ago

TLE from 1 week ago
0 NOAA 17 DEB
1 49479U 02032DH  26165.34703537  .00000687  00000-0  19605-3 0  9997
2 49479  98.8133 209.6232 0062984  34.4319 326.0928 14.47426643264489
Epoch: 2026-06-14T08:19Z
TLE epoch observation values (Epoch: 2026-06-14T08:19:43.855Z)
Latitude
-0.00012°
Longitude
-177.95859°
Altitude
699.918 km
Speed
7.526 km/s
True Right ascension
13h 58m 29s
True Declination
0° 00' 00"
Sunlit
Object was in full shadow at epoch
Visualization orbit readout
Latitude
Unknown
Longitude
Unknown
Altitude
Unknown
Speed
Unknown
Apparent Right ascension
Unknown
Apparent Declination
Unknown
Sunlit
N/A
Visualization observer readout
Local Sidereal Time
21:43:05
Azimuth
Unknown
Elevation
Unknown
Doppler factor
Unknown
Orbital elements
Apogee altitude
775.97 km
Perigee altitude
686.415 km
Semi-major axis
7,109.33 km
Eccentricity
0.0063
Inclination
98.8133°
RAAN
209.6232°
Arg. of periapsis
34.4319°
True anomaly
325.68753°
Mean anomaly
326.0928°
Eccentric anomaly
325.89043°
Mean motion
3.62076 °/min
Orbital period
99.43 mins
BSTAR
0.00019605
Loading maneuver chart data...
Computing Atmospheric mass density...

Documentation

Showing up to 5 results
|